[[{"header":{"parameterUnit":"m.s-1","parameterCategory":1,"la1":30.2991,"la2":30.254,"lo1":-89.0895,"lo2":-89.0444,"dy":0.0017,"dx":0.0017,"nx":28,"ny":28,"refTime":"2023-08-19T09:00:00:Z","depth":0,"parameterNumber":2,"parameterNumberName":"U-component_of_WINDS"},"data":[0,0,0,0,0,0,0,0,0,0,0,0,0,0,0,0,0,0,0,0,0,0,0,0,0,0,0,0,0,0,0,0,0,0,0,0,0,0,0,0,0,0,0,0,0,0,0,0,0,0,0,0,0,0,0,0,0,0,1.4901,1.4901,0,1.4964,1.4965,1.4965,1.4949,1.4948,1.4947,1.4945,1.5018,1.5021,1.5024,0,0,0,0,0,0,0,0,0,0,0,0,0,1.4775,1.4777,1.4901,1.4901,1.4902,1.4964,1.4965,1.4965,1.4949,1.4948,1.4946,1.4945,1.5017,1.502,1.5024,0,0,0,0,0,0,0,0,0,0,0,0,0,1.4833,1.4778,1.4901,1.4901,1.4902,1.4963,1.4965,1.4966,1.495,1.4948,1.4946,1.4944,1.5015,1.502,1.5024,1.5091,0,0,1.5039,1.5041,0,0,0,0,0,0,0,0,1.483,1.4838,1.4901,1.4902,1.4902,1.4946,1.4947,1.5008,1.495,1.4932,1.4945,1.4943,1.4996,1.5002,1.5018,1.5094,1.5097,1.5039,1.5042,1.5044,1.5045,0,0,0,0,0,0,0,1.4826,1.4835,1.4926,1.4902,1.4903,1.4902,1.4908,1.4958,1.4974,1.4933,1.4932,1.494,1.4996,1.5014,1.502,1.5098,1.5039,1.5043,1.5046,1.5048,1.5237,1.5239,0,0,0,0,0,0,1.482,1.4832,1.4924,1.4928,1.4861,1.4905,1.4912,1.4934,1.4973,1.4977,1.4941,1.4939,1.5007,1.5014,1.5022,1.5105,1.5044,1.5048,1.5051,1.5234,1.5237,1.5239,0,0,0,0,0,0,1.4817,1.4828,1.4921,1.488,1.4891,1.491,1.4935,1.4937,1.4954,1.4979,1.4983,1.4956,1.5006,1.5016,1.5074,1.5108,1.505,1.5054,1.5232,1.5235,1.5238,1.527,0,0,0,0,0,0,1.4814,1.4827,1.4851,1.488,1.4893,1.497,1.4936,1.4939,1.4961,1.4959,1.4994,1.4998,1.5005,1.5068,1.5079,1.5113,1.5058,1.5229,1.5233,1.5237,1.5267,1.5275,1.5281,0,0,0,0,0,1.4809,1.4858,1.4852,1.4863,1.4922,1.4971,1.4979,1.4984,1.4964,1.4989,1.5006,1.4997,1.5102,1.5074,1.5086,1.5122,1.5227,1.5232,1.5237,1.5263,1.5273,1.5281,0,0,0,0,0,0,1.4834,1.4862,1.4855,1.4914,1.494,1.4969,1.5,1.4994,1.5028,1.5025,1.5032,1.504,1.51,1.5117,1.5085,1.5191,1.5162,1.517,1.5178,1.5187,1.5194,1.519,1.5062,0,0,0,0,0,1.4846,1.4881,1.4904,1.4954,1.4968,1.4982,1.5003,1.5005,1.5033,1.5045,1.5065,1.5096,1.5136,1.5162,1.52,1.5269,1.5278,1.53,1.5307,1.5313,1.5321,1.5362,1.5373,1.5256,1.5256,1.5256,0,0,1.4872,1.4891,1.4913,1.496,1.498,1.5019,1.4991,1.5033,1.5063,1.5052,1.5108,1.5125,1.5159,1.5224,1.5254,1.524,1.5355,1.532,1.5324,1.5329,1.5368,1.5379,1.5389,1.5259,1.5259,1.5258,0,0,1.4939,1.4956,1.5001,1.5022,1.5052,1.5062,1.5073,1.5102,1.5112,1.5169,1.5162,1.5199,1.5267,1.5293,1.5315,1.5394,1.5389,1.5407,1.5446,1.5486,1.5495,1.5504,1.5535,1.5546,1.5414,1.5414,1.5414,0,1.4968,1.5024,1.5025,1.5068,1.5091,1.508,1.5128,1.5149,1.5192,1.5209,1.5192,1.5279,1.5301,1.5374,1.5393,1.541,1.5426,1.5403,1.5493,1.5502,1.551,1.554,1.5551,1.5416,1.5416,1.5416,1.5415,0,1.5059,1.5099,1.5132,1.5171,1.5197,1.5243,1.5254,1.5281,1.5281,1.5293,1.5353,1.5379,1.5424,1.5441,1.5441,1.5514,1.5505,1.5491,1.5462,1.5523,1.5552,1.5563,1.5419,1.5418,1.5418,1.5417,0,0,1.5144,1.5184,1.5197,1.5216,1.525,1.5282,1.5329,1.537,1.5395,1.5425,1.5466,1.5525,1.5513,1.5538,1.5542,1.5576,1.5642,1.5558,1.5559,1.5575,1.5728,1.574,1.5753,1.5638,1.564,1.5641,1.5726,0,1.5216,1.5295,1.5299,1.5372,1.541,1.5402,1.5443,1.5471,1.5484,1.5521,1.5537,1.5579,1.5558,1.5573,1.5607,1.5626,1.5673,1.562,1.568,1.5682,1.5673,1.5767,1.578,1.5858,1.5737,1.5739,1.574,0,1.5311,1.5343,1.5419,1.545,1.5467,1.5503,1.5543,1.5577,1.5609,1.5617,1.5646,1.5645,1.5697,1.5665,1.5738,1.5702,1.5727,1.5741,1.5744,1.5752,1.5716,1.578,1.5883,1.5895,1.5757,1.5756,1.5754,0,1.5368,1.543,1.5485,1.5501,1.5538,1.5565,1.5582,1.5612,1.5637,1.5673,1.5691,1.5733,1.5757,1.5791,1.5804,1.5779,1.5878,1.5846,1.5889,1.5889,1.5911,1.591,1.6022,1.5924,1.5923,1.5923,1.5923,0,1.545,1.5498,1.5512,1.5545,1.56,1.5606,1.5661,1.5677,1.5704,1.5743,1.5739,1.5777,1.579,1.5831,1.5841,1.5902,1.5913,1.5923,1.5926,1.5924,1.5924,1.5942,1.5938,1.5926,1.5926,1.5925,1.5924,0,1.5524,1.5534,1.5594,1.5624,1.5633,1.5672,1.5699,1.5734,1.5746,1.5797,1.5809,1.583,1.5879,1.5894,1.5953,1.596,1.6032,1.6029,1.6021,1.6022,1.6064,1.6061,1.6194,1.6213,1.61,1.6101,1.6101,0,1.5576,1.5613,1.5647,1.5672,1.5689,1.573,1.5756,1.5764,1.5792,1.5832,1.5863,1.591,1.5948,1.6027,1.605,1.6095,1.6095,1.6138,1.6102,1.6101,1.6099,1.6098,1.6103,1.6146,1.6147,1.6148,1.6149,0,1.5669,1.5673,1.5709,1.5749,1.578,1.5811,1.5842,1.5864,1.5876,1.5909,1.5957,1.5986,1.6046,1.6095,1.6142,1.6163,1.616,1.616,1.6173,1.6173,1.6168,1.6174,1.6042,1.6157,1.6156,1.6156,1.6155,1.6155,1.5736,1.5769,1.5799,1.584,1.5864,1.5893,1.5928,1.5945,1.5984,1.6032,1.6035,1.6088,1.6123,1.6185,1.6209,1.6253,1.6241,1.6259,1.6264,1.6269,1.6273,1.6159,1.6262,1.6261,1.6261,1.6261,1.6261,0,1.5831,1.585,1.5888,1.5931,1.5964,1.5955,1.599,1.6019,1.6065,1.6097,1.6134,1.6192,1.6239,1.6266,1.6314,1.6345,1.6345,1.6357,1.6357,1.6362,1.628,1.6265,1.6357,1.6357,1.6357,1.6357,1.6357,1.6357,1.5885,1.5941,1.5949,1.6019,1.6038,1.6088,1.6109,1.6138,1.6163,1.6226,1.6265,1.6281,1.6312,1.6363,1.6407,1.6414,1.6434,1.6448,1.6454,1.6377,1.6368,1.6358,1.6345,1.6451,1.6452,1.6533,1.6534,1.6535]},{"header":{"parameterUnit":"m.s-1","parameterCategory":1,"la1":30.2991,"la2":30.254,"lo1":-89.0895,"lo2":-89.0444,"dy":0.0017,"dx":0.0017,"nx":28,"ny":28,"refTime":"2023-08-19T09:00:00:Z","depth":0,"parameterNumber":3,"parameterNumberName":"V-component_of_WINDS"},"data":[0,0,0,0,0,0,0,0,0,0,0,0,0,0,0,0,0,0,0,0,0,0,0,0,0,0,0,0,0,0,0,0,0,0,0,0,0,0,0,0,0,0,0,0,0,0,0,0,0,0,0,0,0,0,0,0,0,0,1.6025,1.6025,0,1.6037,1.6037,1.6037,1.5979,1.5977,1.5976,1.5974,1.5986,1.5988,1.5989,0,0,0,0,0,0,0,0,0,0,0,0,0,1.5951,1.5953,1.6025,1.6025,1.6026,1.6037,1.6037,1.6037,1.5979,1.5977,1.5975,1.5973,1.5985,1.5987,1.599,0,0,0,0,0,0,0,0,0,0,0,0,0,1.5975,1.5953,1.6025,1.5998,1.5996,1.6037,1.6037,1.6037,1.598,1.5977,1.5975,1.5972,1.5984,1.5987,1.599,1.6057,0,0,1.5998,1.6,0,0,0,0,0,0,0,0,1.5974,1.5978,1.6002,1.6,1.5997,1.6004,1.6015,1.6044,1.598,1.5986,1.5974,1.5971,1.5994,1.5996,1.6003,1.6058,1.6059,1.5999,1.6,1.6002,1.6002,0,0,0,0,0,0,0,1.5972,1.5977,1.603,1.6002,1.6,1.5984,1.5985,1.602,1.6004,1.5985,1.5981,1.5983,1.5992,1.6001,1.6003,1.6059,1.5999,1.6001,1.6003,1.6004,1.6164,1.6167,0,0,0,0,0,0,1.5974,1.5976,1.6029,1.603,1.5979,1.5988,1.5989,1.6004,1.6003,1.6001,1.5985,1.598,1.5997,1.6,1.6003,1.6078,1.6002,1.6004,1.6006,1.6162,1.6165,1.6168,0,0,0,0,0,0,1.5973,1.598,1.6029,1.6002,1.6007,1.5992,1.601,1.6006,1.6014,1.6003,1.6,1.5997,1.5995,1.5999,1.6043,1.6078,1.6005,1.6008,1.6159,1.6163,1.6166,1.6232,0,0,0,0,0,0,1.5971,1.5979,1.6006,1.6003,1.6009,1.607,1.6012,1.6008,1.6019,1.6013,1.6014,1.6011,1.5994,1.6039,1.6046,1.6081,1.601,1.6155,1.6161,1.6165,1.6226,1.6237,1.6247,0,0,0,0,0,1.5969,1.6025,1.6007,1.6014,1.6041,1.6072,1.6075,1.6054,1.6023,1.6048,1.604,1.6011,1.6074,1.6044,1.6051,1.6088,1.6153,1.6159,1.6165,1.6222,1.6235,1.6247,0,0,0,0,0,0,1.6033,1.6024,1.6005,1.6062,1.6068,1.6062,1.6094,1.6069,1.6085,1.6078,1.6051,1.6051,1.6099,1.6098,1.6065,1.615,1.6108,1.6115,1.6149,1.6162,1.6172,1.617,1.6013,0,0,0,0,0,1.6054,1.608,1.6071,1.6122,1.6126,1.6109,1.6122,1.6105,1.611,1.6112,1.6108,1.6114,1.6134,1.6148,1.6167,1.6227,1.6224,1.6255,1.6265,1.6274,1.6279,1.6306,1.6319,1.6187,1.6187,1.6187,0,0,1.6098,1.6096,1.6114,1.6135,1.6137,1.6163,1.6112,1.6143,1.6161,1.6117,1.6157,1.6154,1.6158,1.6209,1.6232,1.621,1.6315,1.6281,1.6288,1.6289,1.6314,1.6326,1.6337,1.6191,1.619,1.6189,0,0,1.6189,1.6192,1.6232,1.6236,1.624,1.6228,1.6238,1.6235,1.6231,1.627,1.6236,1.6258,1.6295,1.6298,1.6305,1.6394,1.6367,1.6402,1.6454,1.6481,1.6491,1.65,1.6528,1.6539,1.6408,1.6408,1.6408,0,1.6242,1.628,1.6257,1.6288,1.6297,1.6257,1.6297,1.6301,1.6312,1.6318,1.6294,1.6337,1.6338,1.6386,1.6408,1.6416,1.6424,1.64,1.6492,1.65,1.6508,1.6535,1.6546,1.6412,1.6412,1.6411,1.6411,0,1.6343,1.637,1.6403,1.6411,1.6424,1.646,1.644,1.6456,1.6437,1.6427,1.6466,1.6465,1.6481,1.6492,1.6475,1.6538,1.6524,1.6496,1.6452,1.6525,1.6549,1.656,1.6418,1.6416,1.6415,1.6414,0,0,1.6476,1.6469,1.6481,1.6483,1.6483,1.6503,1.6536,1.655,1.6562,1.6571,1.6595,1.6627,1.66,1.6607,1.659,1.6614,1.668,1.6583,1.6583,1.6598,1.6744,1.6762,1.6774,1.6663,1.6665,1.6666,1.6742,0,1.6562,1.6617,1.6595,1.6651,1.6673,1.6635,1.6663,1.6666,1.6657,1.6674,1.6665,1.6685,1.6651,1.6654,1.6677,1.6667,1.6708,1.6662,1.6683,1.6684,1.6679,1.6788,1.6808,1.688,1.6752,1.6754,1.6755,0,1.667,1.668,1.6738,1.673,1.6739,1.6764,1.6774,1.6792,1.6793,1.6784,1.6791,1.6768,1.6798,1.6756,1.6795,1.6764,1.6771,1.6768,1.677,1.6768,1.6722,1.6786,1.6902,1.6912,1.677,1.6769,1.6768,0,1.6755,1.6784,1.682,1.6824,1.6818,1.6836,1.6834,1.6833,1.6841,1.685,1.6855,1.6868,1.6874,1.6884,1.6863,1.6836,1.6904,1.6861,1.6895,1.6896,1.6909,1.6908,1.7025,1.692,1.692,1.692,1.692,0,1.6851,1.6887,1.6858,1.6881,1.6919,1.6893,1.6932,1.6926,1.6924,1.6944,1.6913,1.6932,1.6906,1.6922,1.6907,1.6939,1.6943,1.6935,1.693,1.6936,1.6936,1.6938,1.6931,1.6923,1.6922,1.6922,1.6921,0,1.6952,1.6935,1.6972,1.6962,1.696,1.6988,1.6979,1.6999,1.6987,1.7012,1.7017,1.6999,1.7016,1.6997,1.7013,1.7003,1.7045,1.7035,1.7044,1.704,1.7073,1.7069,1.7193,1.7206,1.7096,1.7097,1.7098,0,1.7013,1.7039,1.7031,1.7041,1.7041,1.7059,1.7067,1.7042,1.7052,1.7053,1.7072,1.7086,1.7096,1.7124,1.7112,1.7123,1.711,1.7153,1.7112,1.7115,1.7106,1.7103,1.7104,1.716,1.7162,1.7163,1.7164,0,1.7121,1.711,1.7123,1.7132,1.7142,1.7148,1.7152,1.7162,1.7137,1.7149,1.7165,1.7172,1.7187,1.72,1.7208,1.7205,1.7179,1.7177,1.7185,1.7189,1.7192,1.7187,1.7063,1.7174,1.7173,1.7172,1.7172,1.7171,1.7201,1.7221,1.7217,1.7231,1.7231,1.7235,1.7251,1.7241,1.7254,1.7263,1.7248,1.7267,1.7265,1.7272,1.7272,1.7286,1.7267,1.728,1.7282,1.7285,1.7288,1.7193,1.7288,1.7287,1.7287,1.7287,1.7287,0,1.7304,1.7299,1.7312,1.7317,1.7328,1.7303,1.7305,1.7315,1.7332,1.7332,1.7341,1.7358,1.737,1.7359,1.7368,1.7381,1.7369,1.7384,1.7381,1.738,1.7306,1.7296,1.7393,1.7393,1.7393,1.7393,1.7393,1.7393,1.7358,1.7389,1.7378,1.7407,1.7402,1.742,1.7422,1.7425,1.7424,1.7443,1.7453,1.7445,1.7439,1.7448,1.7457,1.7453,1.7456,1.7474,1.7466,1.7396,1.7386,1.7376,1.7366,1.7476,1.7476,1.7538,1.7539,1.7539]}]]